Temperature
7 6 5 6 6 7 6 6 6 6 6 6 5 5 5 5 5 5 5 6 6 7 7 7 8 8 8 8 8 7 7 7 7 7 7 7 7 7 7 7 7 7 7 7
5 5 6 6 6 6 6 6 5 5 6 6 5 5 5 5 5 5 5 5 6 7 7 7 7 7 7 7 7 7 7 7 7 6 6 6 6 6 6 6 6 6 7 7
6 6 6 6 6 6 6 6 5 5 5 5 4 5 5 5 5 5 5 6 6 6 6 7 7 7 7 7 7 7 6 6 6 6 6 6 6 6 6 6 6 6 6 6
5 5 6 6 6 6 6 6 6 5 4 4 4 4 5 4 4 4 5 5 5 6 6 6 6 6 6 6 6 6 6 6 6 5 5 5 5 5 5 5 5 5 6 6
5 5 5 6 6 6 5 5 5 5 4 4 3 4 5 4 4 5 5 5 5 5 6 6 6 6 6 6 6 6 6 5 5 5 5 5 5 5 5 5 5 5 5 5
4 5 5 5 5 5 5 5 4 3 3 4 4 3 4 3 4 5 4 5 5 5 5 5 5 5 5 5 5 5 5 5 5 5 4 4 4 4 4 5 5 5 5 5
4 5 5 5 5 5 5 4 4 4 3 4 3 3 4 4 4 4 4 4 5 5 5 5 5 5 5 5 5 5 5 5 4 4 4 4 4 4 4 4 4 4 4 4
4 4 4 4 5 4 4 5 4 4 4 3 3 3 4 5 4 5 5 5 4 5 5 5 5 4 4 4 4 4 4 4 4 4 4 4 4 4 3 3 3 4 4 4
3 4 4 4 4 4 4 3 3 3 2 2 3 2 3 4 4 4 4 4 4 4 4 4 4 4 4 4 4 4 4 4 4 3 3 3 3 3 3 3 3 3 3 3
3 3 4 4 4 4 4 3 2 3 3 4 3 3 4 4 4 3 3 3 3 4 4 4 4 4 4 4 4 4 3 3 3 3 3 3 3 3 3 3 3 3 3 3
3 3 3 3 3 3 3 3 2 2 2 3 3 4 4 4 3 3 3 3 3 3 3 3 3 3 3 4 3 3 3 3 3 3 3 3 3 3 3 3 3 3 3 3
2 2 2 3 3 3 3 3 2 3 2 1 2 3 4 3 3 2 3 3 3 3 3 3 3 3 3 3 3 3 3 3 3 3 3 2 2 3 2 3 3 2 2 2
2 2 2 3 3 2 2 2 2 1 1 0 1 3 3 2 3 3 3 3 3 3 3 3 3 3 3 3 2 2 2 2 2 2 2 2 2 2 2 2 2 2 2 2
3 1 2 3 3 2 2 2 1 1 1 1 1 3 4 3 3 2 3 2 2 2 2 2 2 2 2 2 2 2 2 2 2 2 2 2 2 2 2 2 2 2 2 2
2 1 1 1 2 1 1 2 1 1 1 2 2 2 3 3 2 2 2 2 2 2 2 2 2 2 2 1 1 1 1 1 1 1 1 1 1 1 1 1 1 1 2 2
1 1 0 1 1 1 1 1 1 1 1 1 2 2 2 3 2 2 2 2 1 2 2 2 2 2 1 1 1 1 1 1 1 1 1 1 1 1 1 1 1 1 1 1
-0 -0 0 1 0 1 2 1 1 1 1 1 2 3 2 1 1 1 2 2 2 2 2 2 2 1 1 1 1 0 1 0 1 1 0 0 0 1 1 1 1 1 1 1
-1 -0 -0 -0 0 2 3 2 1 1 1 1 1 1 1 1 2 2 3 2 2 2 2 2 1 1 1 1 0 0 0 0 0 0 0 0 0 0 0 0 0 0 0 0
-1 -0 -1 -1 -0 1 2 2 1 1 2 1 1 1 1 1 1 2 3 2 2 2 2 1 1 1 1 0 0 0 0 0 0 0 -0 -0 -0 -0 -0 -0 -0 -1 -1 -1
-1 -1 -1 -1 1 1 3 2 1 2 2 1 1 1 0 0 0 1 3 2 2 2 1 1 1 1 0 0 0 -0 -0 -0 -0 -0 -0 -0 -0 -1 -1 -1 -1 -1 -1 -1
-1 -1 -1 -1 -0 1 1 1 1 2 3 2 2 1 1 -0 1 2 2 2 2 2 1 1 1 1 0 0 -0 -0 -0 -0 -0 -0 -1 -1 -1 -1 -1 -1 -1 -1 -2 -2
-1 -1 -1 -1 -0 1 1 0 1 2 3 3 3 2 2 2 2 2 2 2 1 1 1 1 0 0 0 0 -0 -1 -1 -1 -1 -1 -1 -1 -1 -1 -1 -2 -2 -2 -2 -2
-2 -1 -1 -1 1 1 1 2 3 3 2 3 3 3 2 2 2 2 1 1 1 1 0 0 0 0 0 -0 -0 -1 -1 -1 -1 -1 -1 -1 -1 -2 -2 -2 -2 -2 -2 -2
-2 -2 -2 -2 -1 -0 1 2 3 3 2 3 2 2 2 2 1 1 1 1 0 0 -0 -0 -0 -0 -0 -0 -1 -1 -1 -1 -1 -1 -1 -1 -2 -2 -2 -2 -3 -3 -3 -3
-2 -3 -3 -2 -1 -0 1 2 3 3 2 2 2 2 2 1 1 1 1 0 0 -0 -0 -0 -0 -0 -1 -1 -1 -1 -1 -1 -1 -1 -2 -2 -2 -2 -2 -3 -3 -3 -3 -3
-2 -2 -2 -0 0 -0 1 3 3 2 2 2 2 2 1 1 1 1 0 0 -0 -0 -0 -1 -1 -1 -1 -1 -1 -1 -1 -1 -2 -2 -2 -2 -2 -2 -3 -3 -3 -3 -3 -3
Wind_Speed
3 2 2 5 6 3 3 3 6 6 3 3 7 10 11 7 5 6 6 6 7 8 7 5 4 3 3 2 2 2 2 2 1 0 0 1 2 2 2 2 3 4 3 2
3 3 5 3 3 3 4 5 6 5 3 3 6 11 10 7 6 6 8 8 7 6 5 4 4 3 3 3 3 3 3 3 3 2 1 1 1 1 2 2 2 3 3 2
4 3 2 2 2 3 5 6 6 5 5 2 4 8 6 5 4 5 6 6 5 6 6 5 4 4 3 3 4 4 3 3 3 2 1 1 1 1 1 1 2 2 3 3
3 3 2 3 4 4 6 5 5 4 3 4 1 5 7 5 5 6 6 5 5 5 5 5 4 4 4 4 3 3 3 2 2 2 2 2 1 2 2 2 2 3 3 3
3 1 1 3 4 4 4 2 2 2 2 3 1 3 8 3 5 7 6 6 5 5 4 4 4 4 4 3 3 3 2 2 2 2 3 3 2 2 2 2 2 2 2 2
3 2 1 2 2 3 2 1 2 2 1 4 4 4 7 4 6 6 5 4 4 4 4 4 3 2 2 2 2 1 1 2 2 2 3 3 3 3 2 2 3 3 2 2
4 3 1 1 1 2 2 3 3 4 2 6 2 4 9 7 6 5 5 5 4 3 3 3 3 3 3 2 2 2 2 2 2 2 3 3 4 4 4 4 4 3 3 3
2 5 3 1 3 2 2 4 4 4 5 5 2 6 7 5 4 3 3 3 2 2 2 2 3 3 3 3 2 2 2 2 2 3 3 3 3 3 3 4 4 4 4 4
2 5 1 1 1 4 3 3 3 3 1 4 6 6 8 2 2 2 2 3 3 3 3 3 3 3 3 3 3 3 3 3 3 3 3 3 3 3 4 4 4 4 4 3
3 4 3 1 1 0 3 5 4 3 2 4 6 5 5 4 3 3 3 4 5 4 4 4 3 3 3 3 3 2 3 3 3 3 3 3 3 4 4 4 4 4 4 4
2 2 3 1 4 5 3 3 3 3 3 3 4 7 5 5 3 3 4 4 4 4 4 4 3 3 4 3 2 2 3 3 3 3 3 3 3 4 4 4 4 5 4 4
3 2 3 5 3 2 4 5 6 4 4 3 3 7 4 4 2 2 4 4 4 4 4 3 3 3 3 4 4 3 3 3 4 3 3 3 3 3 3 4 4 4 4 4
4 2 2 4 1 0 2 3 4 3 2 4 4 8 3 2 4 4 4 4 4 4 4 3 3 3 3 4 4 4 4 4 3 3 2 3 3 3 4 4 4 4 4 4
3 3 5 7 5 3 4 5 5 5 4 5 9 11 11 9 7 7 6 5 4 3 3 3 3 3 3 4 4 4 4 3 3 2 2 3 3 4 4 4 3 3 4 4
2 3 5 7 7 5 7 9 8 10 9 9 10 11 14 9 8 7 6 5 4 4 4 4 4 4 4 4 4 4 4 3 3 2 3 3 3 3 3 3 3 3 3 3
1 2 2 5 4 6 9 11 12 12 10 11 12 15 12 7 4 5 5 5 5 5 5 4 4 4 4 4 5 5 4 4 3 2 3 3 3 3 3 3 2 2 2 2
2 2 1 4 4 5 9 10 11 8 8 9 12 12 6 5 6 6 6 6 6 6 5 5 5 5 5 5 4 5 5 4 3 3 3 3 3 3 3 3 2 2 2 2
4 3 1 2 3 6 7 3 7 8 9 9 9 8 6 7 7 6 6 5 6 6 5 5 5 5 5 4 4 4 4 3 3 3 3 3 2 3 2 2 2 2 2 2
6 5 2 1 3 8 8 3 5 5 7 7 9 9 6 3 4 5 5 5 6 5 5 5 5 5 4 4 4 4 4 3 2 3 3 3 3 3 2 2 3 2 2 2
3 4 3 3 3 6 6 2 3 2 6 5 7 7 5 0 3 6 5 4 4 4 3 4 3 3 3 4 3 3 3 4 4 4 4 3 3 3 3 3 2 1 2 2
3 4 6 6 6 9 6 2 4 3 7 3 5 6 5 5 6 5 4 4 4 4 4 3 3 3 3 3 2 3 4 5 5 4 3 3 2 2 2 2 1 1 1 1
8 6 7 6 6 9 4 5 6 7 3 3 4 5 6 6 5 4 4 4 4 4 3 3 3 4 3 2 2 3 5 5 4 3 2 2 2 2 1 0 0 1 1 0
8 8 6 9 9 5 5 7 6 3 4 4 4 5 5 5 5 5 4 4 4 4 4 3 3 4 4 3 2 4 5 4 3 2 2 1 1 1 0 1 1 1 1 1
5 4 4 6 10 8 8 8 7 6 7 6 5 5 4 5 5 5 4 4 4 4 4 3 3 3 4 4 3 4 4 3 2 2 2 2 1 1 0 1 1 1 1 1
6 6 5 7 8 7 7 7 7 6 5 5 5 4 4 4 5 5 5 5 4 4 4 3 3 4 5 4 4 4 3 2 2 2 2 2 1 0 1 1 1 2 2 2
6 8 8 9 7 6 7 6 5 5 6 6 5 5 4 4 5 5 5 5 4 4 3 3 4 4 4 4 4 3 2 1 1 1 2 1 1 0 0 0 1 2 1 2
Wind_Direction
32 76 213 221 209 216 201 219 259 262 267 260 252 268 278 273 259 260 266 266 267 265 267 264 257 245 240 250 246 242 252 228 187 175 214 273 282 279 273 273 265 261 260 251
46 255 245 227 209 222 229 252 265 285 284 259 274 276 273 254 247 244 249 256 262 274 289 286 273 254 239 240 245 242 241 228 209 210 212 231 249 264 261 275 274 266 258 247
200 246 255 216 222 232 240 230 244 268 315 304 306 292 273 267 260 259 253 255 260 260 267 280 270 259 263 257 249 249 242 232 219 208 169 48 32 349 328 318 298 297 283 266
249 275 259 243 235 209 253 236 233 256 292 289 342 287 279 271 284 270 269 270 267 271 267 274 268 264 257 257 256 249 237 227 221 188 185 188 224 252 254 265 272 295 286 275
266 275 242 242 248 216 237 269 223 228 214 285 244 245 285 295 279 274 266 264 268 267 261 273 269 260 263 260 254 250 247 238 226 202 205 207 241 254 274 279 283 288 295 285
258 270 223 227 277 214 213 33 63 60 88 272 229 205 278 245 241 272 277 280 281 276 275 278 283 290 296 293 280 259 244 249 230 219 220 218 231 250 265 275 268 276 285 287
315 286 265 173 21 14 86 81 15 346 328 253 212 213 251 248 240 245 267 282 287 283 279 287 299 304 306 311 301 271 236 252 242 229 233 235 235 234 239 249 249 258 268 274
309 287 245 203 185 194 201 156 167 226 247 284 274 238 254 258 264 270 273 285 305 307 294 293 292 290 291 292 291 278 252 258 250 242 248 248 240 238 248 248 247 246 252 257
204 266 281 207 199 154 157 191 169 150 244 275 268 277 296 267 329 331 331 347 332 317 312 308 309 310 301 288 275 262 255 267 263 256 252 254 250 247 253 256 249 249 254 260
175 260 274 273 123 62 161 154 119 150 217 270 284 265 246 267 291 322 339 324 314 314 311 312 313 311 300 286 281 278 261 255 259 257 253 262 257 252 250 250 249 252 254 252
170 214 293 282 200 194 157 159 159 165 181 195 275 273 227 212 231 272 289 290 291 297 298 303 312 313 308 314 309 299 288 281 275 266 262 263 261 255 249 247 249 249 253 252
172 159 263 255 251 196 189 185 165 179 229 204 226 270 263 200 232 272 300 308 303 295 294 304 315 323 330 325 321 314 304 287 274 265 262 262 263 261 258 257 259 254 251 249
156 147 322 334 337 183 216 205 188 166 158 190 211 261 287 326 324 315 310 312 308 305 307 318 323 324 324 320 319 314 305 294 284 278 272 272 273 268 264 263 263 257 250 247
143 182 203 223 242 210 238 228 207 190 207 227 232 257 284 297 299 303 301 295 297 294 297 309 314 313 316 317 314 313 307 301 295 285 271 273 276 270 267 267 264 258 247 240
131 233 242 260 269 253 244 240 218 216 215 225 248 254 271 277 275 281 286 295 301 300 303 304 306 308 313 316 312 310 305 302 293 278 272 271 274 278 282 284 282 271 252 240
139 233 275 277 263 260 262 248 231 234 232 239 259 270 266 268 271 282 280 281 285 288 290 294 301 307 306 305 307 307 301 295 284 269 273 281 281 282 284 282 286 286 267 250
180 169 274 273 308 316 272 235 211 218 217 210 237 251 267 277 272 263 260 260 262 274 281 285 290 288 290 293 295 294 290 288 280 270 275 275 272 276 284 289 296 292 278 258
169 158 205 287 353 260 251 217 197 222 242 223 237 254 254 260 276 267 248 244 260 270 276 279 284 291 293 296 302 300 298 295 282 272 271 271 273 280 287 285 286 286 287 273
188 169 186 210 261 278 288 242 183 206 264 229 233 255 265 286 322 290 248 245 252 260 269 269 272 280 291 301 306 309 313 307 294 279 274 270 265 270 270 268 268 276 288 288
152 167 181 190 228 251 258 228 168 130 280 245 216 242 249 241 296 280 279 270 269 280 280 281 290 297 298 303 308 306 305 311 298 281 275 269 259 257 253 255 258 278 276 280
164 183 206 214 236 263 258 210 134 175 259 269 220 228 221 218 237 268 286 289 283 288 287 288 294 297 289 297 311 301 305 298 292 286 283 279 270 259 247 250 261 277 285 296
184 185 198 187 217 254 217 149 189 228 266 253 239 235 232 242 265 280 285 289 294 300 299 297 301 302 304 298 293 296 296 294 298 297 287 284 281 268 252 196 247 236 221 222
204 197 193 200 221 248 201 211 234 234 254 256 248 254 234 245 261 275 278 280 286 287 293 298 288 300 307 298 275 280 292 302 311 319 308 296 294 284 234 188 205 206 196 204
239 199 205 245 257 255 253 256 263 253 248 254 253 252 230 240 255 267 273 278 283 288 291 296 291 290 296 299 286 276 288 299 309 314 313 302 287 288 261 237 213 204 207 215
220 185 210 248 268 287 269 246 247 251 250 257 260 245 235 235 257 258 266 270 273 282 287 283 273 278 284 295 292 288 290 293 301 303 309 316 321 264 216 254 237 228 220 215
198 191 199 235 235 228 260 261 247 246 254 250 251 265 257 233 242 252 262 266 268 272 279 283 284 282 288 296 292 287 280 267 277 298 305 306 316 293 226 278 335 315 282 286
Height
1496 1500 1502 1501 1501 1501 1502 1504 1504 1501 1498 1499 1497 1493 1488 1486 1485 1483 1482 1481 1480 1480 1480 1481 1481 1481 1481 1481 1481 1480 1479 1479 1478 1478 1477 1477 1477 1477 1477 1477 1477 1477 1477 1476
1500 1501 1499 1498 1500 1501 1502 1503 1503 1500 1497 1497 1496 1491 1484 1482 1481 1479 1478 1477 1477 1477 1477 1477 1478 1478 1478 1477 1477 1477 1476 1475 1475 1475 1475 1474 1474 1473 1473 1474 1474 1474 1473 1473
1499 1499 1497 1498 1499 1500 1500 1501 1501 1501 1498 1497 1497 1489 1482 1478 1477 1476 1475 1474 1474 1474 1474 1474 1474 1474 1474 1474 1473 1473 1473 1472 1472 1472 1472 1471 1470 1470 1470 1470 1470 1470 1470 1470
1499 1497 1497 1497 1497 1498 1498 1497 1497 1499 1502 1502 1500 1497 1482 1478 1476 1473 1472 1472 1471 1472 1472 1471 1471 1471 1471 1471 1471 1470 1470 1469 1469 1469 1468 1468 1467 1466 1467 1467 1467 1467 1467 1467
1498 1497 1496 1496 1496 1496 1496 1495 1496 1498 1501 1503 1501 1502 1483 1479 1476 1471 1469 1469 1468 1469 1469 1469 1469 1468 1468 1468 1468 1467 1467 1466 1466 1466 1466 1465 1464 1464 1464 1464 1464 1464 1464 1464
1498 1496 1496 1495 1494 1494 1495 1496 1498 1502 1503 1503 1498 1500 1486 1479 1472 1469 1467 1466 1466 1466 1467 1467 1467 1466 1466 1465 1465 1464 1464 1463 1463 1463 1463 1462 1462 1461 1461 1461 1460 1461 1461 1461
1498 1496 1494 1494 1495 1495 1496 1500 1506 1506 1508 1501 1496 1496 1483 1469 1467 1466 1465 1465 1464 1464 1464 1464 1464 1464 1463 1463 1462 1462 1461 1460 1460 1460 1459 1459 1458 1458 1458 1457 1457 1457 1457 1457
1502 1499 1494 1493 1494 1496 1497 1497 1505 1505 1506 1501 1495 1491 1474 1466 1464 1464 1464 1464 1463 1462 1462 1462 1462 1461 1461 1460 1460 1459 1458 1458 1457 1456 1456 1456 1455 1455 1454 1454 1454 1454 1454 1453
1501 1498 1493 1492 1492 1494 1496 1500 1499 1507 1508 1507 1495 1487 1473 1463 1463 1463 1462 1461 1460 1460 1460 1460 1459 1459 1458 1458 1457 1456 1455 1455 1454 1453 1453 1452 1452 1452 1451 1451 1451 1450 1450 1450
1498 1499 1493 1492 1492 1493 1494 1497 1503 1505 1502 1499 1491 1486 1476 1465 1463 1462 1461 1460 1459 1458 1458 1458 1457 1456 1456 1455 1454 1453 1452 1451 1451 1450 1449 1449 1448 1448 1448 1448 1447 1447 1446 1446
1497 1500 1496 1493 1492 1492 1495 1497 1498 1502 1501 1502 1498 1480 1465 1462 1462 1462 1460 1459 1458 1457 1456 1456 1455 1454 1453 1452 1451 1450 1449 1448 1447 1447 1446 1445 1445 1445 1445 1444 1443 1443 1442 1442
1496 1500 1499 1494 1490 1490 1490 1492 1496 1498 1500 1503 1499 1481 1459 1460 1459 1459 1459 1458 1457 1456 1455 1454 1453 1452 1450 1449 1448 1447 1446 1444 1444 1443 1443 1442 1442 1441 1440 1440 1439 1439 1439 1438
1494 1499 1498 1492 1493 1493 1492 1491 1492 1495 1498 1502 1499 1478 1459 1459 1458 1458 1457 1456 1455 1454 1453 1452 1451 1449 1448 1446 1445 1444 1442 1441 1440 1440 1439 1439 1438 1437 1437 1436 1436 1435 1435 1434
1491 1496 1496 1491 1486 1489 1490 1489 1490 1491 1494 1494 1486 1471 1460 1459 1458 1457 1455 1455 1453 1452 1451 1450 1448 1447 1446 1444 1442 1441 1440 1438 1437 1436 1436 1435 1434 1434 1433 1432 1432 1431 1431 1430
1490 1493 1493 1490 1487 1487 1485 1483 1484 1485 1483 1482 1473 1470 1459 1457 1457 1455 1453 1452 1451 1450 1448 1447 1446 1445 1443 1442 1440 1438 1437 1436 1434 1433 1432 1431 1431 1430 1429 1429 1428 1428 1427 1426
1490 1493 1492 1489 1485 1484 1481 1476 1477 1477 1476 1474 1470 1464 1455 1454 1454 1453 1451 1450 1449 1447 1446 1445 1443 1442 1440 1439 1437 1436 1434 1433 1431 1430 1430 1429 1428 1427 1427 1426 1425 1424 1424 1423
1491 1492 1492 1489 1486 1481 1475 1467 1469 1469 1466 1467 1464 1457 1452 1452 1451 1450 1449 1448 1446 1445 1443 1442 1441 1439 1438 1436 1435 1433 1431 1430 1429 1428 1427 1426 1425 1425 1424 1423 1422 1421 1420 1420
1489 1491 1493 1492 1489 1482 1463 1459 1460 1461 1458 1457 1455 1451 1450 1449 1448 1447 1446 1445 1443 1442 1440 1439 1438 1436 1435 1433 1432 1430 1428 1427 1426 1425 1424 1423 1423 1422 1421 1420 1419 1419 1418 1417
1484 1488 1491 1492 1489 1476 1462 1457 1458 1459 1454 1450 1450 1448 1447 1447 1446 1443 1442 1442 1441 1439 1438 1437 1436 1434 1432 1431 1429 1427 1426 1424 1423 1422 1421 1421 1420 1419 1418 1417 1416 1416 1415 1415
1484 1485 1489 1490 1485 1474 1456 1454 1453 1456 1454 1445 1445 1445 1445 1446 1447 1441 1438 1438 1437 1436 1435 1434 1433 1431 1429 1428 1427 1425 1423 1422 1420 1419 1418 1418 1417 1416 1415 1415 1414 1414 1413 1413
1483 1484 1485 1484 1481 1467 1454 1452 1453 1458 1449 1442 1441 1441 1442 1442 1441 1438 1436 1435 1434 1433 1432 1431 1430 1428 1427 1426 1424 1422 1421 1419 1418 1417 1416 1415 1414 1413 1412 1412 1412 1411 1411 1411
1475 1478 1480 1481 1478 1464 1448 1450 1451 1446 1440 1439 1439 1438 1438 1437 1436 1435 1434 1432 1431 1430 1429 1428 1427 1425 1424 1423 1422 1419 1418 1417 1415 1414 1413 1412 1411 1410 1410 1409 1409 1409 1409 1408
1467 1464 1464 1464 1455 1446 1443 1442 1440 1439 1438 1437 1437 1436 1435 1434 1433 1432 1431 1430 1428 1428 1426 1425 1424 1422 1422 1421 1419 1417 1416 1414 1413 1411 1410 1409 1408 1408 1407 1407 1407 1407 1407 1406
1459 1457 1459 1456 1446 1441 1439 1438 1437 1436 1435 1435 1434 1434 1433 1431 1430 1429 1428 1427 1426 1425 1423 1422 1421 1419 1418 1418 1417 1415 1413 1412 1410 1409 1407 1407 1406 1405 1405 1405 1405 1405 1404 1404
1451 1453 1453 1449 1441 1437 1434 1433 1433 1433 1432 1432 1431 1430 1430 1429 1427 1426 1425 1424 1423 1422 1421 1420 1418 1417 1416 1415 1414 1412 1411 1409 1408 1406 1405 1404 1404 1403 1403 1403 1403 1403 1403 1403
1442 1444 1444 1438 1433 1434 1430 1429 1430 1429 1428 1428 1427 1426 1426 1426 1424 1423 1422 1421 1420 1419 1418 1417 1416 1415 1413 1412 1411 1410 1408 1407 1405 1404 1403 1403 1402 1401 1401 1401 1401 1401 1402 1402